Time,TemperatureF,DewpointF,PressureIn,WindDirection,WindDirectionDegrees,WindSpeedMPH,WindSpeedGustMPH,Humidity,HourlyPrecipIn,Conditions,Clouds,dailyrainin,SoftwareType,DateUTC
2013-09-23 00:00:00,58.5,56.2,29.95,South,179,0.0,0.0,92,0.00,,,0.26,Wunderground v.1.15,2013-09-23 04:00:00,
2013-09-23 00:02:00,58.5,56.2,29.96,South,179,0.0,0.0,92,0.00,,,0.00,Wunderground v.1.15,2013-09-23 04:02:00,
2013-09-23 00:04:00,58.4,56.1,29.95,South,179,0.0,0.0,92,0.00,,,0.00,Wunderground v.1.15,2013-09-23 04:04:00,
2013-09-23 00:07:00,58.4,56.1,29.95,South,179,0.0,0.0,92,0.00,,,0.00,Wunderground v.1.15,2013-09-23 04:07:00,
2013-09-23 00:10:00,58.3,56.0,29.95,South,179,0.0,0.0,92,0.00,,,0.00,Wunderground v.1.15,2013-09-23 04:10:00,
2013-09-23 00:14:00,58.2,55.9,29.96,South,179,0.0,0.0,92,0.00,,,0.00,Wunderground v.1.15,2013-09-23 04:14:00,
2013-09-23 00:20:00,58.1,55.8,29.96,South,179,0.0,0.0,92,0.00,,,0.00,Wunderground v.1.15,2013-09-23 04:20:00,
2013-09-23 00:26:00,58.1,55.8,29.96,South,179,0.0,0.0,92,0.00,,,0.00,Wunderground v.1.15,2013-09-23 04:26:00,
2013-09-23 00:32:00,58.0,55.7,29.96,South,179,0.0,0.0,92,0.00,,,0.00,Wunderground v.1.15,2013-09-23 04:32:00,
2013-09-23 00:38:00,58.0,55.7,29.96,South,179,0.0,0.0,92,0.00,,,0.00,Wunderground v.1.15,2013-09-23 04:38:00,
2013-09-23 00:44:00,58.0,55.7,29.95,South,179,0.0,0.0,92,0.00,,,0.00,Wunderground v.1.15,2013-09-23 04:44:00,
2013-09-23 00:50:00,57.9,55.6,29.96,South,179,0.0,0.0,92,0.00,,,0.00,Wunderground v.1.15,2013-09-23 04:50:00,
2013-09-23 00:56:00,57.9,55.9,29.96,South,179,0.0,0.0,93,0.00,,,0.00,Wunderground v.1.15,2013-09-23 04:56:00,
2013-09-23 01:02:00,58.0,55.7,29.96,South,179,0.0,0.0,92,0.00,,,0.00,Wunderground v.1.15,2013-09-23 05:02:00,
2013-09-23 01:08:00,58.0,55.7,29.96,South,179,0.0,0.0,92,0.00,,,0.00,Wunderground v.1.15,2013-09-23 05:08:00,
2013-09-23 01:14:00,57.9,55.9,29.96,South,179,0.0,0.0,93,0.00,,,0.00,Wunderground v.1.15,2013-09-23 05:14:00,
2013-09-23 01:20:00,57.9,55.9,29.96,South,179,0.0,0.0,93,0.00,,,0.00,Wunderground v.1.15,2013-09-23 05:20:00,
2013-09-23 01:26:00,57.8,55.8,29.96,South,179,0.0,0.0,93,0.00,,,0.00,Wunderground v.1.15,2013-09-23 05:26:00,
2013-09-23 01:32:00,57.8,55.8,29.97,South,179,0.0,0.0,93,0.00,,,0.00,Wunderground v.1.15,2013-09-23 05:32:00,
2013-09-23 01:38:00,57.8,55.8,29.97,South,179,0.0,0.0,93,0.00,,,0.00,Wunderground v.1.15,2013-09-23 05:38:00,
2013-09-23 01:44:00,57.8,55.8,29.97,South,179,0.0,0.0,93,0.00,,,0.00,Wunderground v.1.15,2013-09-23 05:44:00,
2013-09-23 01:50:00,58.0,55.7,29.97,South,179,0.0,0.0,92,0.00,,,0.00,Wunderground v.1.15,2013-09-23 05:50:00,
2013-09-23 01:56:00,58.1,55.8,29.97,South,179,0.0,0.0,92,0.00,,,0.00,Wunderground v.1.15,2013-09-23 05:56:00,
2013-09-23 02:02:00,58.3,56.0,29.98,South,179,0.0,0.0,92,0.00,,,0.00,Wunderground v.1.15,2013-09-23 06:02:00,
2013-09-23 02:08:00,58.4,56.4,29.98,South,179,0.0,0.0,93,0.00,,,0.00,Wunderground v.1.15,2013-09-23 06:08:00,
2013-09-23 02:14:00,58.5,56.5,29.98,South,179,0.0,0.0,93,0.00,,,0.00,Wunderground v.1.15,2013-09-23 06:14:00,
2013-09-23 02:20:00,58.7,56.4,29.98,South,179,0.0,0.0,92,0.00,,,0.00,Wunderground v.1.15,2013-09-23 06:20:00,
2013-09-23 02:26:00,58.8,56.5,29.98,South,179,0.0,0.0,92,0.00,,,0.00,Wunderground v.1.15,2013-09-23 06:26:00,
2013-09-23 02:32:00,59.0,56.7,29.98,South,179,0.0,0.0,92,0.00,,,0.00,Wunderground v.1.15,2013-09-23 06:32:00,
2013-09-23 02:38:00,59.1,57.1,29.98,South,179,0.0,0.0,93,0.00,,,0.00,Wunderground v.1.15,2013-09-23 06:38:00,
2013-09-23 02:44:00,59.2,57.2,29.98,South,179,0.0,0.0,93,0.00,,,0.00,Wunderground v.1.15,2013-09-23 06:44:00,
2013-09-23 02:50:00,59.3,57.0,29.98,South,179,0.0,0.0,92,0.00,,,0.00,Wunderground v.1.15,2013-09-23 06:50:00,
2013-09-23 02:56:00,59.4,57.1,29.98,South,179,0.0,0.0,92,0.00,,,0.00,Wunderground v.1.15,2013-09-23 06:56:00,
2013-09-23 03:02:00,59.5,57.5,29.98,South,179,0.0,0.0,93,0.00,,,0.00,Wunderground v.1.15,2013-09-23 07:02:00,
2013-09-23 03:08:00,59.7,57.7,29.98,ESE,112,0.0,1.0,93,0.00,,,0.00,Wunderground v.1.15,2013-09-23 07:08:00,
2013-09-23 03:14:00,60.0,57.7,29.98,ESE,114,0.0,0.0,92,0.00,,,0.00,Wunderground v.1.15,2013-09-23 07:14:00,
2013-09-23 03:20:00,60.4,57.5,29.98,SSE,149,0.0,0.0,90,0.00,,,0.00,Wunderground v.1.15,2013-09-23 07:20:00,
2013-09-23 03:26:00,60.8,57.5,29.98,SSE,155,0.0,2.0,89,0.00,,,0.00,Wunderground v.1.15,2013-09-23 07:26:00,
2013-09-23 03:32:00,61.0,57.4,29.98,SE,141,0.0,0.0,88,0.00,,,0.00,Wunderground v.1.15,2013-09-23 07:32:00,
2013-09-23 03:38:00,61.2,57.3,29.98,SSE,162,0.0,0.0,87,0.00,,,0.00,Wunderground v.1.15,2013-09-23 07:38:00,
2013-09-23 03:44:00,61.2,57.3,29.98,South,176,0.0,2.0,87,0.00,,,0.00,Wunderground v.1.15,2013-09-23 07:44:00,
2013-09-23 03:50:00,61.2,57.3,29.98,SSE,168,0.0,1.0,87,0.00,,,0.00,Wunderground v.1.15,2013-09-23 07:50:00,
2013-09-23 03:56:00,61.1,57.2,29.98,SSE,168,0.0,1.0,87,0.00,,,0.00,Wunderground v.1.15,2013-09-23 07:56:00,
2013-09-23 04:02:00,61.0,57.1,29.99,SSE,168,0.0,0.0,87,0.00,,,0.00,Wunderground v.1.15,2013-09-23 08:02:00,
2013-09-23 04:08:00,60.8,56.9,29.99,SSE,168,0.0,0.0,87,0.00,,,0.00,Wunderground v.1.15,2013-09-23 08:08:00,
2013-09-23 04:14:00,60.6,56.7,29.99,SSE,168,0.0,0.0,87,0.00,,,0.00,Wunderground v.1.15,2013-09-23 08:14:00,
2013-09-23 04:20:00,60.4,56.8,29.99,SSE,168,0.0,0.0,88,0.00,,,0.00,Wunderground v.1.15,2013-09-23 08:20:00,
2013-09-23 04:26:00,60.2,56.6,30.00,SSE,168,0.0,0.0,88,0.00,,,0.00,Wunderground v.1.15,2013-09-23 08:26:00,
2013-09-23 04:32:00,59.9,56.3,30.00,SSE,168,0.0,0.0,88,0.00,,,0.00,Wunderground v.1.15,2013-09-23 08:32:00,
2013-09-23 04:38:00,59.7,56.1,29.99,SSE,168,0.0,0.0,88,0.00,,,0.00,Wunderground v.1.15,2013-09-23 08:38:00,
2013-09-23 04:44:00,59.6,56.0,30.00,SSE,168,0.0,0.0,88,0.00,,,0.00,Wunderground v.1.15,2013-09-23 08:44:00,
2013-09-23 04:50:00,59.5,56.3,30.00,SSE,168,0.0,0.0,89,0.00,,,0.00,Wunderground v.1.15,2013-09-23 08:50:00,
2013-09-23 04:56:00,59.4,56.2,30.00,SSE,167,0.0,0.0,89,0.00,,,0.00,Wunderground v.1.15,2013-09-23 08:56:00,
2013-09-23 05:02:00,59.3,55.7,30.00,SSE,167,0.0,0.0,88,0.00,,,0.00,Wunderground v.1.15,2013-09-23 09:02:00,
2013-09-23 05:08:00,59.2,56.0,30.00,SSE,167,0.0,0.0,89,0.00,,,0.00,Wunderground v.1.15,2013-09-23 09:08:00,
2013-09-23 05:14:00,59.1,55.9,30.00,SSE,167,0.0,0.0,89,0.00,,,0.00,Wunderground v.1.15,2013-09-23 09:14:00,
2013-09-23 05:20:00,58.9,55.7,30.01,SSE,167,0.0,0.0,89,0.00,,,0.00,Wunderground v.1.15,2013-09-23 09:20:00,
2013-09-23 05:26:00,58.7,55.5,30.01,SSE,167,0.0,0.0,89,0.00,,,0.00,Wunderground v.1.15,2013-09-23 09:26:00,
2013-09-23 05:32:00,58.6,55.7,30.01,SSE,167,0.0,0.0,90,0.00,,,0.00,Wunderground v.1.15,2013-09-23 09:32:00,
2013-09-23 05:38:00,58.5,55.6,30.01,SSE,167,0.0,0.0,90,0.00,,,0.00,Wunderground v.1.15,2013-09-23 09:38:00,
2013-09-23 05:44:00,58.3,55.4,30.01,SSE,167,0.0,0.0,90,0.00,,,0.00,Wunderground v.1.15,2013-09-23 09:44:00,
2013-09-23 05:50:00,58.1,55.2,30.02,SSE,167,0.0,0.0,90,0.00,,,0.00,Wunderground v.1.15,2013-09-23 09:50:00,
2013-09-23 05:56:00,57.9,55.3,30.02,SSE,167,0.0,0.0,91,0.00,,,0.00,Wunderground v.1.15,2013-09-23 09:56:00,
2013-09-23 06:02:00,57.7,55.1,30.02,SSE,167,0.0,0.0,91,0.00,,,0.00,Wunderground v.1.15,2013-09-23 10:02:00,
2013-09-23 06:08:00,57.5,54.9,30.02,SSE,167,0.0,0.0,91,0.00,,,0.00,Wunderground v.1.15,2013-09-23 10:08:00,
2013-09-23 06:14:00,57.2,54.6,30.02,SSE,167,0.0,0.0,91,0.00,,,0.00,Wunderground v.1.15,2013-09-23 10:14:00,
2013-09-23 06:20:00,57.0,54.4,30.02,SSE,167,0.0,0.0,91,0.00,,,0.00,Wunderground v.1.15,2013-09-23 10:20:00,
2013-09-23 06:26:00,56.8,54.5,30.03,SSE,167,0.0,0.0,92,0.00,,,0.00,Wunderground v.1.15,2013-09-23 10:26:00,
2013-09-23 06:32:00,56.6,54.3,30.03,SSE,167,0.0,0.0,92,0.00,,,0.00,Wunderground v.1.15,2013-09-23 10:32:00,
2013-09-23 06:38:00,56.4,54.1,30.03,SSE,167,0.0,0.0,92,0.00,,,0.00,Wunderground v.1.15,2013-09-23 10:38:00,
2013-09-23 06:44:00,56.2,53.9,30.03,SSE,167,0.0,0.0,92,0.00,,,0.00,Wunderground v.1.15,2013-09-23 10:44:00,
2013-09-23 06:50:00,56.1,53.8,30.04,SSE,167,0.0,0.0,92,0.00,,,0.00,Wunderground v.1.15,2013-09-23 10:50:00,
2013-09-23 06:56:00,55.9,53.6,30.04,SSE,167,0.0,0.0,92,0.00,,,0.00,Wunderground v.1.15,2013-09-23 10:56:00,
2013-09-23 07:02:00,55.8,53.8,30.04,SSE,167,0.0,0.0,93,0.00,,,0.00,Wunderground v.1.15,2013-09-23 11:02:00,
2013-09-23 07:08:00,55.8,53.8,30.05,SSE,167,0.0,0.0,93,0.00,,,0.00,Wunderground v.1.15,2013-09-23 11:08:00,
2013-09-23 07:14:00,56.0,54.0,30.05,SSE,167,0.0,0.0,93,0.00,,,0.00,Wunderground v.1.15,2013-09-23 11:14:00,
2013-09-23 07:20:00,56.4,54.4,30.05,SSE,155,0.0,0.0,93,0.00,,,0.00,Wunderground v.1.15,2013-09-23 11:20:00,
2013-09-23 07:26:00,56.7,54.7,30.05,SSE,155,0.0,0.0,93,0.00,,,0.00,Wunderground v.1.15,2013-09-23 11:26:00,
2013-09-23 07:32:00,57.0,54.7,30.06,SSE,155,0.0,1.0,92,0.00,,,0.00,Wunderground v.1.15,2013-09-23 11:32:00,
2013-09-23 07:38:00,57.5,55.2,30.06,SE,146,0.0,1.0,92,0.00,,,0.00,Wunderground v.1.15,2013-09-23 11:38:00,
2013-09-23 07:44:00,57.9,55.6,30.06,SSE,147,0.0,0.0,92,0.00,,,0.00,Wunderground v.1.15,2013-09-23 11:44:00,
2013-09-23 07:50:00,58.2,55.9,30.07,WSW,247,0.0,0.0,92,0.00,,,0.00,Wunderground v.1.15,2013-09-23 11:50:00,
2013-09-23 07:56:00,58.5,55.9,30.07,South,174,0.0,1.0,91,0.00,,,0.00,Wunderground v.1.15,2013-09-23 11:56:00,
2013-09-23 08:02:00,58.8,56.2,30.07,SSE,162,0.0,1.0,91,0.00,,,0.00,Wunderground v.1.15,2013-09-23 12:02:00,
2013-09-23 08:08:00,59.1,56.2,30.07,SSW,210,0.0,1.0,90,0.00,,,0.00,Wunderground v.1.15,2013-09-23 12:08:00,
2013-09-23 08:14:00,59.5,55.9,30.08,West,259,1.0,4.0,88,0.00,,,0.00,Wunderground v.1.15,2013-09-23 12:14:00,
2013-09-23 08:20:00,59.9,56.0,30.08,South,174,1.0,1.0,87,0.00,,,0.00,Wunderground v.1.15,2013-09-23 12:20:00,
2013-09-23 08:26:00,60.4,55.9,30.08,SSE,147,2.0,3.0,85,0.00,,,0.00,Wunderground v.1.15,2013-09-23 12:26:00,
2013-09-23 08:32:00,60.9,56.0,30.08,SW,235,2.0,2.0,84,0.00,,,0.00,Wunderground v.1.15,2013-09-23 12:32:00,
2013-09-23 08:38:00,61.4,55.9,30.08,South,187,1.0,3.0,82,0.00,,,0.00,Wunderground v.1.15,2013-09-23 12:38:00,
2013-09-23 08:44:00,61.7,55.1,30.09,SE,137,1.0,3.0,79,0.00,,,0.00,Wunderground v.1.15,2013-09-23 12:44:00,
2013-09-23 08:50:00,62.3,55.0,30.09,SSE,160,2.0,3.0,77,0.00,,,0.00,Wunderground v.1.15,2013-09-23 12:50:00,
2013-09-23 08:56:00,62.5,55.2,30.09,SSE,153,1.0,3.0,77,0.00,,,0.00,Wunderground v.1.15,2013-09-23 12:56:00,
2013-09-23 09:02:00,62.3,55.0,30.09,SE,127,1.0,2.0,77,0.00,,,0.00,Wunderground v.1.15,2013-09-23 13:02:00,
2013-09-23 09:08:00,62.3,55.0,30.09,West,273,1.0,6.0,77,0.00,,,0.00,Wunderground v.1.15,2013-09-23 13:08:00,
2013-09-23 09:14:00,62.3,55.0,30.09,WSW,243,2.0,2.0,77,0.00,,,0.00,Wunderground v.1.15,2013-09-23 13:14:00,
2013-09-23 09:20:00,62.8,55.5,30.09,South,172,1.0,1.0,77,0.00,,,0.00,Wunderground v.1.15,2013-09-23 13:20:00,
2013-09-23 09:26:00,63.3,55.2,30.10,SE,137,1.0,3.0,75,0.00,,,0.00,Wunderground v.1.15,2013-09-23 13:26:00,
2013-09-23 09:32:00,63.6,56.3,30.10,West,262,2.0,2.0,77,0.00,,,0.00,Wunderground v.1.15,2013-09-23 13:32:00,
2013-09-23 09:38:00,63.6,55.5,30.10,West,266,1.0,2.0,75,0.00,,,0.00,Wunderground v.1.15,2013-09-23 13:38:00,
2013-09-23 09:44:00,63.6,55.5,30.10,WSW,250,1.0,4.0,75,0.00,,,0.00,Wunderground v.1.15,2013-09-23 13:44:00,